F1ZRP-13 Weather Reports


time (UTC)temp
C
wind
direction
speed
KPH
gust
KPH
rain 1hr
cm
rain 24hr
cm
rain mn
cm
humidity
%
barometer
mb
20260506213240 10 0.0 0.0 0.00 0.00 0.00 86 1012.1
20260506211715 10 0.0 0.0 0.00 0.00 0.00 86 1011.9
20260506210003 10 0.0 0.0 0.00 0.00 0.00 82 1011.8
20260506204224 10 0.0 0.0 0.00 0.00 0.00 81 1011.7
20260506202932 10 0.0 0.0 0.00 0.00 0.00 81 1011.6
20260506201149 11 0.0 0.0 0.00 0.00 0.00 80 1011.6
20260506195636 11 0.0 0.0 0.00 0.00 0.00 81 1011.4
20260506193623 11 0.0 0.0 0.00 0.00 0.00 81 1011.1
20260506192004 11 0.0 0.0 0.00 0.00 0.00 83 1010.9
20260506190642 11 0.0 0.0 0.00 0.00 0.00 82 1010.7
20260506185136 11 0.0 0.0 0.00 0.00 0.00 81 1010.7
20260506183407 11 0.0 0.0 0.00 0.00 0.00 80 1010.5
20260506181717 11 0.0 0.0 0.00 0.00 0.00 80 1010.3
20260506180230 12 0.0 0.0 0.00 0.00 0.00 81 1010.1
20260506174859 12 0.0 0.0 0.00 0.00 0.00 80 1009.9
20260506173204 12 0.0 0.0 0.00 0.00 0.00 77 1009.7
20260506171702 13 0.0 0.0 0.00 0.00 0.00 77 1009.5
20260506170342 13 0.0 0.0 0.00 0.00 0.00 77 1009.5
20260506164803 13 0.0 0.0 0.00 0.00 0.00 78 1009.4
20260506162917 12 0.0 0.0 0.00 0.00 0.00 82 1009.4
20260506161510 12 0.0 0.0 0.00 0.00 0.00 83 1009.4
20260506160238 12 0.0 0.0 0.00 0.00 0.00 84 1009.4
20260506154945 12 0.0 0.0 0.00 0.00 0.00 84 1009.4
20260506142640 12 0.0 0.0 0.00 0.00 0.00 90 1008.9
20260506141121 12 0.0 0.0 0.00 0.00 0.00 91 1008.9
20260506135837 12 0.0 0.0 0.00 0.00 0.00 91 1008.7
20260506134545 12 0.0 0.0 0.00 0.00 0.00 91 1008.7
20260506132852 12 0.0 0.0 0.00 0.00 0.00 93 1008.9
20260506131633 11 0.0 0.0 0.00 0.00 0.00 93 1009.0
20260506130056 11 0.0 0.0 0.00 0.00 0.00 93 1008.9
20260506124728 11 0.0 0.0 0.00 0.00 0.00 94 1008.7
20260506123328 11 0.0 0.0 0.00 0.00 0.00 94 1008.6
20260506121831 12 0.0 0.0 0.00 0.00 0.00 94 1008.5
20260506120323 11 0.0 0.0 0.00 0.00 0.00 94 1008.4
20260506115215 11 0.0 0.0 0.00 0.00 0.00 94 1008.2
20260506112716 12 0.0 0.0 0.00 0.00 0.00 93 1008.1
20260506111624 12 0.0 0.0 0.00 0.00 0.00 94 1008.1
20260506110039 12 0.0 0.0 0.00 0.00 0.00 94 1008.0
20260506104620 12 0.0 0.0 0.00 0.00 0.00 94 1007.9
20260506102808 12 0.0 0.0 0.00 0.00 0.00 95 1007.8
20260506101135 11 0.0 0.0 0.00 0.00 0.00 95 1007.7
20260506095501 12 0.0 0.0 0.00 0.00 0.00 95 1007.5
20260506094322 12 0.0 0.0 0.00 0.00 0.00 95 1007.4
20260506093125 12 0.0 0.0 0.00 0.00 0.00 95 1007.4
20260506091845 12 0.0 0.0 0.00 0.00 0.00 95 1007.2
20260506090423 12 0.0 0.0 0.00 0.00 0.00 95 1007.2
20260506084448 12 0.0 0.0 0.00 0.00 0.00 96 1007.0
20260506083219 12 0.0 0.0 0.00 0.00 0.00 95 1006.9
20260506081557 12 0.0 0.0 0.00 0.00 0.00 96 1006.9
20260506072910 11 0.0 0.0 0.00 0.00 0.00 96 1006.8
20260506071546 11 0.0 0.0 0.00 0.00 0.00 96 1006.8
20260506061939 11 0.0 0.0 0.00 0.00 0.00 96 1006.8
20260506050350 10 0.0 0.0 0.00 0.00 0.00 96 1006.5
20260506044545 10 0.0 0.0 0.00 0.00 0.00 96 1006.4
20260506043122 10 0.0 0.0 0.00 0.00 0.00 96 1006.5
20260506041918 10 0.0 0.0 0.00 0.00 0.00 96 1006.5
20260506035015 10 0.0 0.0 0.00 0.00 0.00 96 1006.7
20260506033817 10 0.0 0.0 0.00 0.00 0.00 96 1006.8
20260506032814 10 0.0 0.0 0.00 0.00 0.00 96 1006.8
20260506031356 10 0.0 0.0 0.00 0.00 0.00 96 1007.0
20260506025756 10 0.0 0.0 0.00 0.00 0.00 96 1007.1
20260506024245 10 0.0 0.0 0.00 0.00 0.00 96 1007.0
20260506022600 10 0.0 0.0 0.00 0.00 0.00 96 1007.0
20260506020703 11 0.0 0.0 0.00 0.00 0.00 96 1007.0
20260506015236 11 0.0 0.0 0.00 0.00 0.00 96 1006.9
20260506013548 11 0.0 0.0 0.00 0.00 0.00 96 1007.0
20260506011923 11 0.0 0.0 0.00 0.00 0.00 96 1007.2
20260506010058 11 0.0 0.0 0.00 0.00 0.00 96 1007.4
20260506004546 11 0.0 0.0 0.00 0.00 0.00 96 1007.6
20260506002934 11 0.0 0.0 0.00 0.00 0.00 96 1007.7
20260506001201 11 0.0 0.0 0.00 0.00 0.00 96 1007.9
20260506000116 11 0.0 0.0 0.00 0.00 0.00 96 1008.0
20260505234407 11 0.0 0.0 0.00 0.00 0.00 96 1008.0
20260505232929 11 0.0 0.0 0.00 0.00 0.00 96 1008.1
20260505231331 11 0.0 0.0 0.00 0.00 0.00 96 1008.1
20260505225700 11 0.0 0.0 0.00 0.00 0.00 96 1008.1
20260505224149 11 0.0 0.0 0.00 0.00 0.00 96 1008.1
20260505222657 12 0.0 0.0 0.00 0.00 0.00 96 1008.1
20260505221213 12 0.0 0.0 0.00 0.00 0.00 96 1008.2
20260505215506 12 0.0 0.0 0.00 0.00 0.00 96 1008.3